カタログに戻る

COSMOS 2251 DEB

運用中LEO
NORAD 34560·DEBRIS·🇷🇺 Russia

打ち上げ Jun 16, 1993 から Plesetsk Cosmodrome

Loading…

次のパス (今後24時間)

TLE

最新Source: Space-Track

元期: Sep 14, 2026, 04:29 UTC

1 34560U 93036UW  26257.18688811  .00005695  00000-0  79432-3 0  9995
2 34560  74.0161 322.8125 0016238 331.3836  59.2834 14.77852408923145

AllMySatでCOSMOS 2251 DEBをリアルタイム追跡

Download on the App Store